Zurück zum Katalog

COSMOS 1193

AktivMilitärLEO
NORAD 11876·PAYLOAD·🇷🇺 Russia

Gestartet Jul 9, 1980 von Plesetsk Cosmodrome

Loading…

Nächste Überflüge (nächste 24 Stunden)

TLE

AktuellSource: Space-Track

Epoche: Sep 14, 2026, 06:25 UTC

1 11876U 80058B   26257.26797182  .00000000  00000-0  97643-4 0  9991
2 11876  74.0223 351.2980 0038411 103.7400 270.8344 12.54953953115688

Verfolge COSMOS 1193 in Echtzeit mit AllMySat

Download on the App Store